Regional Weather Roundup
Issued by NWS Jackson, KY

Home | Current Version | Previous Version | Graphics & Text | Print | Product List | Glossary On
Versions: 1 2 3 4 5 6 7 8 9 10 11 12 13 14 15 16 17 18 19 20 21 22 23 24 25 26 27
000
ASUS43 KJKL 272210
RWRJKL

EAST KENTUCKY HOURLY WEATHER ROUNDUP
NATIONAL WEATHER SERVICE JACKSON KY
500 PM EST MON FEB 27 2017

NOTE: "FAIR" INDICATES FEW OR NO CLOUDS BELOW 12,000 FEET WITH
NO SIGNIFICANT WEATHER AND/OR OBSTRUCTIONS TO VISIBILITY.

* THESE REPORTS ARE NOT UNDER NWS QUALITY CONTROL AND MAY NOT
  REPORT WEATHER SUCH AS PRECIPITATION AND FOG.

KYZ079-080-083-085-087-088-110-112-115-119-120-272300
...EASTERN KENTUCKY...

CITY           SKY/WX    TMP DP  RH WIND       PRES   REMARKS
JACKSON        CLOUDY    53  31  42 VRB3      30.22S
LONDON         CLOUDY    53  34  48 VRB3      30.21S
SOMERSET*      CLOUDY    54  36  50 S6        30.21S
MONTICELLO*    CLOUDY    56  41  57 SE7       30.20F
WILLIAMSBURG*  CLOUDY    54  36  50 CALM      30.21R
MIDDLESBORO*   CLOUDY    52  35  51 SE5       30.23S
HARLAN APT*    CLOUDY    52  30  43 CALM      30.22S
PIKE CO APT*   CLOUDY    52  33  48 W6        30.24S
BIG SANDY APT* CLOUDY    54  35  49 SW7G24    30.24S
MOREHEAD APT*  CLOUDY    54  36  50 VRB5      30.22F
ASHLAND*       CLOUDY    52  43  71 SE7       30.24R
$$

KYZ035-036-041-042-044-050-067-078-099-272300
...CENTRAL KENTUCKY...

CITY           SKY/WX    TMP DP  RH WIND       PRES   REMARKS
FLEMING/MASON* PTSUNNY   53  39  59 SE3       30.22S
DANVILLE*      PTSUNNY   55  41  58 S12G18    30.18F
LEXINGTON      PTSUNNY   58  39  49 SE7       30.17F
FRANKFORT      CLOUDY    56  37  49 VRB3      30.16F
LOUISVILLE     MOSUNNY   59  37  44 S5        30.15F
LEBANON*       MOCLDY    57  37  47 SW5       30.16F
GLASGOW*       MOSUNNY   61  40  46 SW7       30.15F
BOWLING GREEN  SUNNY     62  42  47 S10       30.14F
$$

KYZ091>093-OHZ055-061-077-WVZ005-015-034-035-042-272300
...SOUTHERN OHIO/WEST VIRGINIA...

CITY           SKY/WX    TMP DP  RH WIND       PRES   REMARKS
COVINGTON      PTSUNNY   49  44  83 SE8       30.19S
COLUMBUS       CLOUDY    46  41  82 SE8       30.23S
DAYTON         CLOUDY    46  40  79 S9        30.20S
WILMINGTON     CLOUDY    46  42  86 S7        30.21R
HUNTINGTON     CLOUDY    49  39  68 E7        30.25R
CHARLESTON     CLOUDY    50  38  63 NE3       30.25R
PINEVILLE*     CLOUDY    52  32  45 MISG      30.29R
BECKLEY        CLOUDY    49  24  37 SE8       30.24S
BLUEFIELD      CLOUDY    51  22  31 S9        30.27R
LOGAN CO APT*  CLOUDY    54  28  37 CALM      30.23S
$$

VAZ002-007-008-TNZ017-027-036-066-071-272300
...SOUTHWEST VIRGINIA/EAST TENNESSEE...

CITY           SKY/WX    TMP DP  RH WIND       PRES   REMARKS
WISE*          CLOUDY    52  25  35 CALM      30.24R
JONESVILLE*    CLOUDY    52  34  50 CALM      30.25S
ABINGDON*      CLOUDY    57  19  22 SW8       30.25S
BRISTOL        CLOUDY    57  22  25 SE6       30.24S
MORRISTOWN*    CLOUDY    52  32  46 NE3       30.21S
SEVIERVILLE*   CLOUDY    52  32  46 NE5       30.20F
KNOXVILLE      CLOUDY    55  37  50 NW7       30.20S
LAFOLLETTE*    CLOUDY    55  37  50 S7        30.23S
OAK RIDGE      CLOUDY    53  36  52 VRB3      30.22F
CROSSVILLE     CLOUDY    50  37  61 S10G21    30.20S
NASHVILLE      MOSUNNY   62  41  46 S12       30.16S
$$

...KEY TO REMARKS...
VSB - VISIBILITY IN MILES
WCI - WIND CHILL INDEX
HX  - HEAT INDEX

$$




USA.gov is the U.S. government's official web portal to all federal, state and local government web resources and services.